Location: The Saddle
(36.8333°N, 80.3417°W)
Time: 11:17:26
(UTC-05:00)

A-11 Canister half - Pass Details

Date: 18 December 2023
Orbit: 1526 x 1682 km, 47.3° (Epoch: 22 February)

Event Time Altitude Azimuth Distance (km) Brightness Sun altitude
Rises 14:13:54 0° 211° (SSW) 4,819 13.1 23.9°
Reaches altitude 10° 14:17:05 10° 207° (SSW) 3,855 13.2 23.6°
Maximum altitude 14:26:30 51° 135° (SE) 2,012 10.1 22.6°
Drops below altitude 10° 14:36:08 10° 63° (ENE) 3,944 10.7 21.5°
Sets 14:39:25 0° 59° (ENE) 4,937 11.1 21.2°
